Time,TemperatureF,DewpointF,PressureIn,WindDirection,WindDirectionDegrees,WindSpeedMPH,WindSpeedGustMPH,Humidity,HourlyPrecipIn,Conditions,Clouds,dailyrainin,SoftwareType,DateUTC
2013-03-20 00:03:00,31.0,25.0,29.88,SSW,196,7.0,18.0,78,0.00,,,-99.99,,2013-03-20 04:03:00,
2013-03-20 00:12:00,31.0,25.0,29.88,SSW,196,7.0,18.0,78,0.00,,,-99.99,,2013-03-20 04:12:00,
2013-03-20 00:23:00,31.0,25.0,29.88,SSW,196,7.0,18.0,78,0.00,,,-99.99,,2013-03-20 04:23:00,
2013-03-20 00:32:00,31.0,25.0,29.87,SW,219,6.0,15.0,79,0.00,,,-99.99,,2013-03-20 04:32:00,
2013-03-20 00:43:00,31.0,25.0,29.87,SW,219,6.0,15.0,79,0.00,,,-99.99,,2013-03-20 04:43:00,
2013-03-20 00:53:00,31.0,25.0,29.87,SSW,201,6.0,16.0,78,0.00,,,-99.99,,2013-03-20 04:53:00,
2013-03-20 01:03:00,31.0,25.0,29.87,SW,214,8.0,21.0,78,0.00,,,-99.99,,2013-03-20 05:03:00,
2013-03-20 01:12:00,31.0,25.0,29.87,SSW,213,6.0,20.0,78,0.00,,,-99.99,,2013-03-20 05:12:00,
2013-03-20 01:23:00,31.0,25.0,29.87,SSW,213,6.0,20.0,78,0.00,,,-99.99,,2013-03-20 05:23:00,
2013-03-20 01:32:00,30.0,24.0,29.87,SSW,206,6.0,17.0,78,0.00,,,-99.99,,2013-03-20 05:32:00,
2013-03-20 01:42:00,30.0,24.0,29.87,SSW,206,6.0,17.0,78,0.00,,,-99.99,,2013-03-20 05:42:00,
2013-03-20 01:52:00,30.0,24.0,29.87,SSW,213,9.0,19.0,78,0.00,,,-99.99,,2013-03-20 05:52:00,
2013-03-20 02:02:00,30.0,24.0,29.88,SSW,194,7.0,23.0,78,0.00,,,-99.99,,2013-03-20 06:02:00,
2013-03-20 02:12:00,30.0,24.0,29.88,SSW,194,7.0,23.0,78,0.00,,,-99.99,,2013-03-20 06:12:00,
2013-03-20 02:22:00,30.0,24.0,29.88,SSW,207,6.0,21.0,78,0.00,,,-99.99,,2013-03-20 06:22:00,
2013-03-20 02:32:00,30.0,24.0,29.88,SSW,202,7.0,25.0,78,0.00,,,-99.99,,2013-03-20 06:32:00,
2013-03-20 02:42:00,30.0,24.0,29.88,SSW,202,7.0,25.0,78,0.00,,,-99.99,,2013-03-20 06:42:00,
2013-03-20 02:53:00,30.0,24.0,29.88,SW,216,6.0,14.0,78,0.00,,,-99.99,,2013-03-20 06:53:00,
2013-03-20 03:02:00,29.0,23.0,29.88,SSW,208,3.0,13.0,78,0.00,,,-99.99,,2013-03-20 07:02:00,
2013-03-20 03:12:00,29.0,23.0,29.88,SSW,208,3.0,13.0,78,0.00,,,-99.99,,2013-03-20 07:12:00,
2013-03-20 03:22:00,29.0,23.0,29.88,SSW,207,4.0,16.0,78,0.00,,,-99.99,,2013-03-20 07:22:00,
2013-03-20 03:32:00,29.0,23.0,29.88,SSW,205,2.0,17.0,78,0.00,,,-99.99,,2013-03-20 07:32:00,
2013-03-20 03:42:00,29.0,23.0,29.88,SSW,205,2.0,17.0,78,0.00,,,-99.99,,2013-03-20 07:42:00,
2013-03-20 03:52:00,29.0,23.0,29.87,South,183,3.0,12.0,77,0.00,,,-99.99,,2013-03-20 07:52:00,
2013-03-20 04:02:00,29.0,23.0,29.87,SSW,192,5.0,16.0,78,0.00,,,-99.99,,2013-03-20 08:02:00,
2013-03-20 04:12:00,29.0,23.0,29.87,SSW,192,5.0,16.0,78,0.00,,,-99.99,,2013-03-20 08:12:00,
2013-03-20 04:22:00,29.0,23.0,29.87,SSW,200,4.0,11.0,78,0.00,,,-99.99,,2013-03-20 08:22:00,
2013-03-20 04:32:00,29.0,23.0,29.87,SSW,201,4.0,10.0,78,0.00,,,-99.99,,2013-03-20 08:32:00,
2013-03-20 04:42:00,29.0,23.0,29.87,SSW,201,4.0,10.0,78,0.00,,,-99.99,,2013-03-20 08:42:00,
2013-03-20 04:52:00,29.0,23.0,29.87,SSW,202,5.0,13.0,78,0.00,,,-99.99,,2013-03-20 08:52:00,
2013-03-20 05:02:00,28.0,22.0,29.87,SSW,202,2.0,11.0,78,0.00,,,-99.99,,2013-03-20 09:02:00,
2013-03-20 05:12:00,28.0,22.0,29.87,SSW,202,2.0,11.0,78,0.00,,,-99.99,,2013-03-20 09:12:00,
2013-03-20 05:22:00,28.0,22.0,29.87,SSW,206,2.0,10.0,78,0.00,,,-99.99,,2013-03-20 09:22:00,
2013-03-20 05:33:00,28.0,22.0,29.87,SSW,201,5.0,13.0,79,0.00,,,-99.99,,2013-03-20 09:33:00,
2013-03-20 05:43:00,28.0,22.0,29.87,SSW,201,5.0,13.0,79,0.00,,,-99.99,,2013-03-20 09:43:00,
2013-03-20 05:52:00,28.0,22.0,29.87,SW,216,0.0,5.0,79,0.00,,,-99.99,,2013-03-20 09:52:00,
2013-03-20 06:03:00,28.0,22.0,29.87,SSW,209,3.0,11.0,79,0.00,,,-99.99,,2013-03-20 10:03:00,
2013-03-20 06:12:00,28.0,22.0,29.87,SSW,209,3.0,11.0,79,0.00,,,-99.99,,2013-03-20 10:12:00,
2013-03-20 06:23:00,28.0,22.0,29.87,SW,214,3.0,12.0,79,0.00,,,-99.99,,2013-03-20 10:23:00,
2013-03-20 06:33:00,28.0,22.0,29.87,SW,236,1.0,10.0,79,0.00,,,-99.99,,2013-03-20 10:33:00,
2013-03-20 06:42:00,28.0,22.0,29.87,SW,236,1.0,10.0,79,0.00,,,-99.99,,2013-03-20 10:42:00,
2013-03-20 06:53:00,28.0,22.0,29.87,SW,220,1.0,10.0,79,0.00,,,-99.99,,2013-03-20 10:53:00,
2013-03-20 07:03:00,28.0,22.0,29.87,SSW,208,3.0,14.0,79,0.00,,,-99.99,,2013-03-20 11:03:00,
2013-03-20 07:12:00,28.0,22.0,29.87,SSW,208,3.0,14.0,79,0.00,,,-99.99,,2013-03-20 11:12:00,
2013-03-20 07:22:00,28.0,22.0,29.87,SW,216,3.0,10.0,79,0.00,,,-99.99,,2013-03-20 11:22:00,
2013-03-20 07:32:00,28.0,22.0,29.87,SW,228,0.0,10.0,79,0.00,,,-99.99,,2013-03-20 11:32:00,
2013-03-20 07:42:00,28.0,22.0,29.87,SW,228,0.0,10.0,79,0.00,,,-99.99,,2013-03-20 11:42:00,
2013-03-20 07:52:00,28.0,22.0,29.87,SSW,211,2.0,10.0,79,0.00,,,-99.99,,2013-03-20 11:52:00,
2013-03-20 08:02:00,29.0,23.0,29.87,SSW,206,3.0,11.0,78,0.00,,,-99.99,,2013-03-20 12:02:00,
2013-03-20 08:12:00,29.0,23.0,29.87,SSW,206,3.0,11.0,78,0.00,,,-99.99,,2013-03-20 12:12:00,
2013-03-20 08:22:00,29.0,23.0,29.87,SSW,204,5.0,15.0,77,0.00,,,-99.99,,2013-03-20 12:22:00,
2013-03-20 08:32:00,30.0,24.0,29.87,SW,225,3.0,16.0,77,0.00,,,-99.99,,2013-03-20 12:32:00,
2013-03-20 08:42:00,30.0,24.0,29.87,SW,225,3.0,16.0,77,0.00,,,-99.99,,2013-03-20 12:42:00,
2013-03-20 08:52:00,30.0,24.0,29.87,SW,217,6.0,14.0,77,0.00,,,-99.99,,2013-03-20 12:52:00,
2013-03-20 09:03:00,30.0,23.0,29.87,SSW,203,6.0,15.0,76,0.00,,,-99.99,,2013-03-20 13:03:00,
2013-03-20 09:12:00,30.0,23.0,29.87,SSW,203,6.0,15.0,76,0.00,,,-99.99,,2013-03-20 13:12:00,
2013-03-20 09:22:00,30.0,24.0,29.86,South,176,6.0,17.0,77,0.00,,,-99.99,,2013-03-20 13:22:00,
2013-03-20 09:32:00,30.0,23.0,29.85,SSW,202,5.0,17.0,76,0.00,,,-99.99,,2013-03-20 13:32:00,
2013-03-20 09:42:00,30.0,23.0,29.85,SSW,202,5.0,17.0,76,0.00,,,-99.99,,2013-03-20 13:42:00,
2013-03-20 09:52:00,31.0,24.0,29.85,SSW,207,5.0,15.0,76,0.00,,,-99.99,,2013-03-20 13:52:00,
2013-03-20 10:03:00,31.0,24.0,29.85,South,191,3.0,13.0,74,0.00,,,-99.99,,2013-03-20 14:03:00,
2013-03-20 10:12:00,31.0,24.0,29.85,South,191,3.0,13.0,74,0.00,,,-99.99,,2013-03-20 14:12:00,
2013-03-20 10:23:00,32.0,24.0,29.85,SSW,212,4.0,16.0,72,0.00,,,-99.99,,2013-03-20 14:23:00,
2013-03-20 10:33:00,32.0,23.0,29.85,SW,215,6.0,18.0,70,0.00,,,-99.99,,2013-03-20 14:33:00,
2013-03-20 10:42:00,32.0,23.0,29.85,SW,215,6.0,18.0,70,0.00,,,-99.99,,2013-03-20 14:42:00,
2013-03-20 10:52:00,33.0,25.0,29.85,SSW,201,5.0,16.0,71,0.00,,,-99.99,,2013-03-20 14:52:00,
2013-03-20 11:03:00,33.0,24.0,29.85,SSW,210,5.0,17.0,70,0.00,,,-99.99,,2013-03-20 15:03:00,
2013-03-20 11:12:00,33.0,25.0,29.84,SSW,213,3.0,14.0,71,0.00,,,-99.99,,2013-03-20 15:12:00,
2013-03-20 11:22:00,33.0,25.0,29.84,SSW,213,3.0,14.0,71,0.00,,,-99.99,,2013-03-20 15:22:00,
2013-03-20 11:33:00,34.0,25.0,29.83,SSW,198,5.0,18.0,70,0.00,,,-99.99,,2013-03-20 15:33:00,
2013-03-20 11:43:00,34.0,25.0,29.83,SSW,198,5.0,18.0,70,0.00,,,-99.99,,2013-03-20 15:43:00,
2013-03-20 11:52:00,35.0,26.0,29.83,SSW,209,5.0,16.0,69,0.00,,,-99.99,,2013-03-20 15:52:00,
2013-03-20 12:03:00,35.0,26.0,29.83,SSW,192,5.0,13.0,68,0.00,,,-99.99,,2013-03-20 16:03:00,
2013-03-20 12:12:00,35.0,26.0,29.83,SSW,192,5.0,13.0,68,0.00,,,-99.99,,2013-03-20 16:12:00,
2013-03-20 12:23:00,35.0,26.0,29.83,SSW,208,4.0,13.0,69,0.00,,,-99.99,,2013-03-20 16:23:00,
2013-03-20 12:33:00,36.0,26.0,29.81,SSW,198,8.0,20.0,67,0.00,,,-99.99,,2013-03-20 16:33:00,
2013-03-20 12:43:00,36.0,26.0,29.81,SSW,198,8.0,20.0,67,0.00,,,-99.99,,2013-03-20 16:43:00,
2013-03-20 12:52:00,36.0,26.0,29.81,SSW,209,5.0,19.0,68,0.00,,,-99.99,,2013-03-20 16:52:00,
2013-03-20 13:03:00,37.0,27.0,29.80,SSW,206,6.0,19.0,67,0.00,,,-99.99,,2013-03-20 17:03:00,
2013-03-20 13:12:00,37.0,27.0,29.80,SSW,206,6.0,19.0,67,0.00,,,-99.99,,2013-03-20 17:12:00,
2013-03-20 13:22:00,37.0,27.0,29.80,SSW,202,6.0,19.0,67,0.00,,,-99.99,,2013-03-20 17:22:00,
2013-03-20 13:32:00,38.0,28.0,29.79,SSW,198,3.0,14.0,66,0.00,,,-99.99,,2013-03-20 17:32:00,
2013-03-20 13:42:00,38.0,28.0,29.79,SSW,198,3.0,14.0,66,0.00,,,-99.99,,2013-03-20 17:42:00,
2013-03-20 13:52:00,38.0,28.0,29.78,South,186,4.0,12.0,66,0.00,,,-99.99,,2013-03-20 17:52:00,
2013-03-20 14:02:00,38.0,27.0,29.78,SSW,205,7.0,20.0,65,0.00,,,-99.99,,2013-03-20 18:02:00,
2013-03-20 14:12:00,38.0,27.0,29.78,SSW,205,7.0,20.0,65,0.00,,,-99.99,,2013-03-20 18:12:00,
2013-03-20 14:22:00,39.0,29.0,29.78,SSW,210,6.0,15.0,66,0.00,,,-99.99,,2013-03-20 18:22:00,
2013-03-20 14:33:00,39.0,29.0,29.76,ESE,109,2.0,13.0,67,0.00,,,-99.99,,2013-03-20 18:33:00,
2013-03-20 14:42:00,39.0,29.0,29.76,ESE,109,2.0,13.0,67,0.00,,,-99.99,,2013-03-20 18:42:00,
2013-03-20 14:53:00,39.0,29.0,29.75,SSW,197,6.0,15.0,66,0.00,,,-99.99,,2013-03-20 18:53:00,
2013-03-20 15:02:00,38.0,28.0,29.74,SW,219,7.0,18.0,67,0.00,,,-99.99,,2013-03-20 19:02:00,
2013-03-20 15:12:00,38.0,28.0,29.74,SW,219,7.0,18.0,67,0.00,,,-99.99,,2013-03-20 19:12:00,
2013-03-20 15:22:00,39.0,29.0,29.74,SSW,212,4.0,11.0,67,0.00,,,-99.99,,2013-03-20 19:22:00,
2013-03-20 15:32:00,38.0,28.0,29.74,SSW,199,3.0,12.0,67,0.00,,,-99.99,,2013-03-20 19:32:00,
2013-03-20 15:42:00,38.0,28.0,29.74,SSW,199,3.0,12.0,67,0.00,,,-99.99,,2013-03-20 19:42:00,
2013-03-20 15:53:00,37.0,28.0,29.74,SSW,209,6.0,21.0,70,0.00,,,-99.99,,2013-03-20 19:53:00,
2013-03-20 16:02:00,37.0,29.0,29.74,SSW,203,7.0,21.0,72,0.00,,,-99.99,,2013-03-20 20:02:00,
2013-03-20 16:13:00,37.0,29.0,29.74,SSW,203,7.0,21.0,72,0.00,,,-99.99,,2013-03-20 20:13:00,
2013-03-20 16:22:00,37.0,29.0,29.74,SSW,209,6.0,16.0,73,0.00,,,-99.99,,2013-03-20 20:22:00,
2013-03-20 16:32:00,38.0,30.0,29.73,SW,216,6.0,18.0,73,0.00,,,-99.99,,2013-03-20 20:32:00,
2013-03-20 16:42:00,38.0,30.0,29.73,SW,216,6.0,18.0,73,0.00,,,-99.99,,2013-03-20 20:42:00,
2013-03-20 16:53:00,37.0,29.0,29.72,SW,221,3.0,11.0,74,0.00,,,-99.99,,2013-03-20 20:53:00,
2013-03-20 17:02:00,36.0,29.0,29.73,SSE,160,5.0,17.0,74,0.00,,,-99.99,,2013-03-20 21:02:00,
2013-03-20 17:12:00,36.0,29.0,29.73,SSE,160,5.0,17.0,74,0.00,,,-99.99,,2013-03-20 21:12:00,
2013-03-20 17:22:00,35.0,30.0,29.73,SSW,204,6.0,12.0,83,0.00,,,-99.99,,2013-03-20 21:22:00,
2013-03-20 17:33:00,35.0,31.0,29.73,SSW,212,5.0,17.0,84,0.00,,,-99.99,,2013-03-20 21:33:00,
2013-03-20 17:42:00,35.0,31.0,29.73,SSW,212,5.0,17.0,84,0.00,,,-99.99,,2013-03-20 21:42:00,
2013-03-20 17:53:00,34.0,30.0,29.73,South,188,4.0,11.0,85,0.00,,,-99.99,,2013-03-20 21:53:00,
2013-03-20 18:03:00,34.0,30.0,29.73,South,174,4.0,13.0,85,0.00,,,-99.99,,2013-03-20 22:03:00,
2013-03-20 18:13:00,34.0,30.0,29.73,South,174,4.0,13.0,85,0.00,,,-99.99,,2013-03-20 22:13:00,
2013-03-20 18:23:00,34.0,30.0,29.73,SSW,199,3.0,8.0,86,0.00,,,-99.99,,2013-03-20 22:23:00,
2013-03-20 18:33:00,34.0,30.0,29.72,South,179,3.0,11.0,86,0.00,,,-99.99,,2013-03-20 22:33:00,
2013-03-20 18:42:00,34.0,30.0,29.72,South,179,3.0,11.0,86,0.00,,,-99.99,,2013-03-20 22:42:00,
2013-03-20 18:53:00,34.0,30.0,29.72,SSE,147,2.0,8.0,85,0.00,,,-99.99,,2013-03-20 22:53:00,
2013-03-20 19:02:00,34.0,30.0,29.73,SSE,161,3.0,10.0,84,0.00,,,-99.99,,2013-03-20 23:02:00,
2013-03-20 19:12:00,34.0,30.0,29.73,SSE,161,3.0,10.0,84,0.00,,,-99.99,,2013-03-20 23:12:00,
2013-03-20 19:23:00,33.0,28.0,29.74,South,186,5.0,13.0,83,0.00,,,-99.99,,2013-03-20 23:23:00,
2013-03-20 19:32:00,33.0,29.0,29.73,SW,218,0.0,3.0,84,0.00,,,-99.99,,2013-03-20 23:32:00,
2013-03-20 19:42:00,33.0,29.0,29.73,SW,218,0.0,3.0,84,0.00,,,-99.99,,2013-03-20 23:42:00,
2013-03-20 19:53:00,33.0,29.0,29.74,ESE,114,5.0,12.0,84,0.00,,,-99.99,,2013-03-20 23:53:00,
2013-03-20 20:02:00,32.0,28.0,29.74,ENE,66,3.0,9.0,86,0.00,,,-99.99,,2013-03-21 00:02:00,
2013-03-20 20:12:00,32.0,28.0,29.74,ENE,66,3.0,9.0,86,0.00,,,-99.99,,2013-03-21 00:12:00,
2013-03-20 20:23:00,32.0,28.0,29.74,NE,35,0.0,4.0,85,0.00,,,-99.99,,2013-03-21 00:23:00,
2013-03-20 20:33:00,32.0,28.0,29.75,East,100,3.0,8.0,86,0.00,,,-99.99,,2013-03-21 00:33:00,
2013-03-20 20:42:00,32.0,28.0,29.75,East,100,3.0,8.0,86,0.00,,,-99.99,,2013-03-21 00:42:00,
2013-03-20 20:53:00,31.0,27.0,29.76,SSE,168,1.0,11.0,85,0.00,,,-99.99,,2013-03-21 00:53:00,
2013-03-20 21:02:00,31.0,28.0,29.76,South,174,6.0,12.0,87,0.00,,,-99.99,,2013-03-21 01:02:00,
2013-03-20 21:12:00,31.0,28.0,29.76,South,174,6.0,12.0,87,0.00,,,-99.99,,2013-03-21 01:12:00,
2013-03-20 21:22:00,30.0,27.0,29.78,South,173,6.0,17.0,88,0.00,,,-99.99,,2013-03-21 01:22:00,
2013-03-20 21:33:00,30.0,27.0,29.78,South,186,5.0,10.0,89,0.00,,,-99.99,,2013-03-21 01:33:00,
2013-03-20 21:42:00,30.0,27.0,29.78,South,186,5.0,10.0,89,0.00,,,-99.99,,2013-03-21 01:42:00,
2013-03-20 21:52:00,30.0,27.0,29.78,South,186,5.0,10.0,89,0.00,,,-99.99,,2013-03-21 01:52:00,
2013-03-20 22:02:00,30.0,28.0,29.78,SW,215,0.0,6.0,92,0.00,,,-99.99,,2013-03-21 02:02:00,
2013-03-20 22:13:00,30.0,28.0,29.78,SW,215,0.0,6.0,92,0.00,,,-99.99,,2013-03-21 02:13:00,
2013-03-20 22:23:00,29.0,27.0,29.78,East,98,1.0,11.0,92,0.00,,,-99.99,,2013-03-21 02:23:00,
2013-03-20 22:33:00,28.0,26.0,29.78,SW,230,0.0,8.0,93,0.00,,,-99.99,,2013-03-21 02:33:00,
2013-03-20 22:42:00,28.0,26.0,29.78,SW,230,0.0,8.0,93,0.00,,,-99.99,,2013-03-21 02:42:00,
2013-03-20 22:52:00,28.0,26.0,29.78,SW,230,0.0,8.0,93,0.00,,,-99.99,,2013-03-21 02:52:00,
2013-03-20 23:02:00,28.0,26.0,29.78,WSW,243,0.0,6.0,93,0.00,,,-99.99,,2013-03-21 03:02:00,
2013-03-20 23:12:00,28.0,26.0,29.78,WSW,243,0.0,6.0,93,0.00,,,-99.99,,2013-03-21 03:12:00,
2013-03-20 23:22:00,28.0,26.0,29.79,WSW,251,0.0,0.0,93,0.00,,,-99.99,,2013-03-21 03:22:00,
2013-03-20 23:33:00,28.0,26.0,29.79,WSW,251,0.0,0.0,93,0.00,,,-99.99,,2013-03-21 03:33:00,
2013-03-20 23:43:00,28.0,26.0,29.79,WSW,251,0.0,0.0,93,0.00,,,-99.99,,2013-03-21 03:43:00,
2013-03-20 23:53:00,27.0,25.0,29.78,North,4,0.0,0.0,93,0.00,,,-99.99,,2013-03-21 03:53:00,